Index of /20260504/WXO-DD/model_rdps/10km/00/069
Name Last modified Size Description
Parent Directory -
20260504T00Z_MSC_RDPS_AbsoluteVorticity_IsbL-0250_RLatLon0.09_PT069H.grib2 2026-05-04 03:02 603K
20260504T00Z_MSC_RDPS_AbsoluteVorticity_IsbL-0500_RLatLon0.09_PT069H.grib2 2026-05-04 03:02 557K
20260504T00Z_MSC_RDPS_AbsoluteVorticity_IsbL-0700_RLatLon0.09_PT069H.grib2 2026-05-04 03:02 616K
20260504T00Z_MSC_RDPS_AbsoluteVorticity_IsbL-0850_RLatLon0.09_PT069H.grib2 2026-05-04 03:02 784K
20260504T00Z_MSC_RDPS_AirTemp_AGL-120m_RLatLon0.09_PT069H.grib2 2026-05-04 03:02 393K
20260504T00Z_MSC_RDPS_AirTemp_AGL-2m_RLatLon0.09_PT069H.grib2 2026-05-04 03:02 626K
20260504T00Z_MSC_RDPS_AirTemp_AGL-40m_RLatLon0.09_PT069H.grib2 2026-05-04 03:02 401K
20260504T00Z_MSC_RDPS_AirTemp_AGL-80m_RLatLon0.09_PT069H.grib2 2026-05-04 03:02 396K
20260504T00Z_MSC_RDPS_AirTemp_IsbL-0001_RLatLon0.09_PT069H.grib2 2026-05-04 03:02 317K
20260504T00Z_MSC_RDPS_AirTemp_IsbL-0005_RLatLon0.09_PT069H.grib2 2026-05-04 03:02 291K
20260504T00Z_MSC_RDPS_AirTemp_IsbL-0010_RLatLon0.09_PT069H.grib2 2026-05-04 03:02 393K
20260504T00Z_MSC_RDPS_AirTemp_IsbL-0020_RLatLon0.09_PT069H.grib2 2026-05-04 03:02 323K
20260504T00Z_MSC_RDPS_AirTemp_IsbL-0030_RLatLon0.09_PT069H.grib2 2026-05-04 03:02 338K
20260504T00Z_MSC_RDPS_AirTemp_IsbL-0050_RLatLon0.09_PT069H.grib2 2026-05-04 03:02 314K
20260504T00Z_MSC_RDPS_AirTemp_IsbL-0100_RLatLon0.09_PT069H.grib2 2026-05-04 03:02 418K
20260504T00Z_MSC_RDPS_AirTemp_IsbL-0150_RLatLon0.09_PT069H.grib2 2026-05-04 03:02 410K
20260504T00Z_MSC_RDPS_AirTemp_IsbL-0175_RLatLon0.09_PT069H.grib2 2026-05-04 03:02 406K
20260504T00Z_MSC_RDPS_AirTemp_IsbL-0200_RLatLon0.09_PT069H.grib2 2026-05-04 03:02 413K
20260504T00Z_MSC_RDPS_AirTemp_IsbL-0225_RLatLon0.09_PT069H.grib2 2026-05-04 03:02 416K
20260504T00Z_MSC_RDPS_AirTemp_IsbL-0250_RLatLon0.09_PT069H.grib2 2026-05-04 03:02 421K
20260504T00Z_MSC_RDPS_AirTemp_IsbL-0275_RLatLon0.09_PT069H.grib2 2026-05-04 03:02 401K
20260504T00Z_MSC_RDPS_AirTemp_IsbL-0300_RLatLon0.09_PT069H.grib2 2026-05-04 03:02 409K
20260504T00Z_MSC_RDPS_AirTemp_IsbL-0350_RLatLon0.09_PT069H.grib2 2026-05-04 03:02 424K
20260504T00Z_MSC_RDPS_AirTemp_IsbL-0400_RLatLon0.09_PT069H.grib2 2026-05-04 03:02 428K
20260504T00Z_MSC_RDPS_AirTemp_IsbL-0450_RLatLon0.09_PT069H.grib2 2026-05-04 03:02 435K
20260504T00Z_MSC_RDPS_AirTemp_IsbL-0500_RLatLon0.09_PT069H.grib2 2026-05-04 03:02 443K
20260504T00Z_MSC_RDPS_AirTemp_IsbL-0550_RLatLon0.09_PT069H.grib2 2026-05-04 03:02 460K
20260504T00Z_MSC_RDPS_AirTemp_IsbL-0600_RLatLon0.09_PT069H.grib2 2026-05-04 03:02 443K
20260504T00Z_MSC_RDPS_AirTemp_IsbL-0650_RLatLon0.09_PT069H.grib2 2026-05-04 03:02 459K
20260504T00Z_MSC_RDPS_AirTemp_IsbL-0700_RLatLon0.09_PT069H.grib2 2026-05-04 03:02 486K
20260504T00Z_MSC_RDPS_AirTemp_IsbL-0750_RLatLon0.09_PT069H.grib2 2026-05-04 03:02 411K
20260504T00Z_MSC_RDPS_AirTemp_IsbL-0800_RLatLon0.09_PT069H.grib2 2026-05-04 03:02 454K
20260504T00Z_MSC_RDPS_AirTemp_IsbL-0850_RLatLon0.09_PT069H.grib2 2026-05-04 03:02 505K
20260504T00Z_MSC_RDPS_AirTemp_IsbL-0875_RLatLon0.09_PT069H.grib2 2026-05-04 03:02 525K
20260504T00Z_MSC_RDPS_AirTemp_IsbL-0900_RLatLon0.09_PT069H.grib2 2026-05-04 03:02 534K
20260504T00Z_MSC_RDPS_AirTemp_IsbL-0925_RLatLon0.09_PT069H.grib2 2026-05-04 03:02 531K
20260504T00Z_MSC_RDPS_AirTemp_IsbL-0950_RLatLon0.09_PT069H.grib2 2026-05-04 03:02 526K
20260504T00Z_MSC_RDPS_AirTemp_IsbL-0970_RLatLon0.09_PT069H.grib2 2026-05-04 03:02 522K
20260504T00Z_MSC_RDPS_AirTemp_IsbL-0985_RLatLon0.09_PT069H.grib2 2026-05-04 03:02 513K
20260504T00Z_MSC_RDPS_AirTemp_IsbL-1000_RLatLon0.09_PT069H.grib2 2026-05-04 03:02 508K
20260504T00Z_MSC_RDPS_AirTemp_IsbL-1015_RLatLon0.09_PT069H.grib2 2026-05-04 03:02 510K
20260504T00Z_MSC_RDPS_Albedo_Sfc_RLatLon0.09_PT069H.grib2 2026-05-04 03:02 159K
20260504T00Z_MSC_RDPS_CAPE_Sfc_RLatLon0.09_PT069H.grib2 2026-05-04 03:02 1.8M
20260504T00Z_MSC_RDPS_CIN_Sfc_RLatLon0.09_PT069H.grib2 2026-05-04 03:02 1.3M
20260504T00Z_MSC_RDPS_CloudWater_EAtm_RLatLon0.09_PT069H.grib2 2026-05-04 03:02 224K
20260504T00Z_MSC_RDPS_ConvectivePrecip-Accum_Sfc_RLatLon0.09_PT069H.grib2 2026-05-04 03:02 1.2M
20260504T00Z_MSC_RDPS_DewPointDepression_AGL-2m_RLatLon0.09_PT069H.grib2 2026-05-04 03:02 424K
20260504T00Z_MSC_RDPS_DewPointDepression_IsbL-0001_RLatLon0.09_PT069H.grib2 2026-05-04 03:02 193
20260504T00Z_MSC_RDPS_DewPointDepression_IsbL-0005_RLatLon0.09_PT069H.grib2 2026-05-04 03:02 193
20260504T00Z_MSC_RDPS_DewPointDepression_IsbL-0010_RLatLon0.09_PT069H.grib2 2026-05-04 03:02 193
20260504T00Z_MSC_RDPS_DewPointDepression_IsbL-0020_RLatLon0.09_PT069H.grib2 2026-05-04 03:02 193
20260504T00Z_MSC_RDPS_DewPointDepression_IsbL-0030_RLatLon0.09_PT069H.grib2 2026-05-04 03:02 193
20260504T00Z_MSC_RDPS_DewPointDepression_IsbL-0050_RLatLon0.09_PT069H.grib2 2026-05-04 03:02 77K
20260504T00Z_MSC_RDPS_DewPointDepression_IsbL-0100_RLatLon0.09_PT069H.grib2 2026-05-04 03:02 112K
20260504T00Z_MSC_RDPS_DewPointDepression_IsbL-0150_RLatLon0.09_PT069H.grib2 2026-05-04 03:02 140K
20260504T00Z_MSC_RDPS_DewPointDepression_IsbL-0175_RLatLon0.09_PT069H.grib2 2026-05-04 03:02 189K
20260504T00Z_MSC_RDPS_DewPointDepression_IsbL-0200_RLatLon0.09_PT069H.grib2 2026-05-04 03:02 231K
20260504T00Z_MSC_RDPS_DewPointDepression_IsbL-0225_RLatLon0.09_PT069H.grib2 2026-05-04 03:02 263K
20260504T00Z_MSC_RDPS_DewPointDepression_IsbL-0250_RLatLon0.09_PT069H.grib2 2026-05-04 03:02 301K
20260504T00Z_MSC_RDPS_DewPointDepression_IsbL-0275_RLatLon0.09_PT069H.grib2 2026-05-04 03:02 311K
20260504T00Z_MSC_RDPS_DewPointDepression_IsbL-0300_RLatLon0.09_PT069H.grib2 2026-05-04 03:02 330K
20260504T00Z_MSC_RDPS_DewPointDepression_IsbL-0350_RLatLon0.09_PT069H.grib2 2026-05-04 03:02 337K
20260504T00Z_MSC_RDPS_DewPointDepression_IsbL-0400_RLatLon0.09_PT069H.grib2 2026-05-04 03:02 348K
20260504T00Z_MSC_RDPS_DewPointDepression_IsbL-0450_RLatLon0.09_PT069H.grib2 2026-05-04 03:02 349K
20260504T00Z_MSC_RDPS_DewPointDepression_IsbL-0500_RLatLon0.09_PT069H.grib2 2026-05-04 03:02 351K
20260504T00Z_MSC_RDPS_DewPointDepression_IsbL-0550_RLatLon0.09_PT069H.grib2 2026-05-04 03:02 364K
20260504T00Z_MSC_RDPS_DewPointDepression_IsbL-0600_RLatLon0.09_PT069H.grib2 2026-05-04 03:02 373K
20260504T00Z_MSC_RDPS_DewPointDepression_IsbL-0650_RLatLon0.09_PT069H.grib2 2026-05-04 03:02 379K
20260504T00Z_MSC_RDPS_DewPointDepression_IsbL-0700_RLatLon0.09_PT069H.grib2 2026-05-04 03:02 390K
20260504T00Z_MSC_RDPS_DewPointDepression_IsbL-0750_RLatLon0.09_PT069H.grib2 2026-05-04 03:02 411K
20260504T00Z_MSC_RDPS_DewPointDepression_IsbL-0800_RLatLon0.09_PT069H.grib2 2026-05-04 03:02 451K
20260504T00Z_MSC_RDPS_DewPointDepression_IsbL-0850_RLatLon0.09_PT069H.grib2 2026-05-04 03:02 485K
20260504T00Z_MSC_RDPS_DewPointDepression_IsbL-0875_RLatLon0.09_PT069H.grib2 2026-05-04 03:02 484K
20260504T00Z_MSC_RDPS_DewPointDepression_IsbL-0900_RLatLon0.09_PT069H.grib2 2026-05-04 03:02 474K
20260504T00Z_MSC_RDPS_DewPointDepression_IsbL-0925_RLatLon0.09_PT069H.grib2 2026-05-04 03:02 460K
20260504T00Z_MSC_RDPS_DewPointDepression_IsbL-0950_RLatLon0.09_PT069H.grib2 2026-05-04 03:02 445K
20260504T00Z_MSC_RDPS_DewPointDepression_IsbL-0970_RLatLon0.09_PT069H.grib2 2026-05-04 03:02 437K
20260504T00Z_MSC_RDPS_DewPointDepression_IsbL-0985_RLatLon0.09_PT069H.grib2 2026-05-04 03:02 436K
20260504T00Z_MSC_RDPS_DewPointDepression_IsbL-1000_RLatLon0.09_PT069H.grib2 2026-05-04 03:02 432K
20260504T00Z_MSC_RDPS_DewPointDepression_IsbL-1015_RLatLon0.09_PT069H.grib2 2026-05-04 03:02 422K
20260504T00Z_MSC_RDPS_DewPoint_AGL-2m_RLatLon0.09_PT069H.grib2 2026-05-04 03:02 311K
20260504T00Z_MSC_RDPS_DownwardLongwaveRadiationFlux-Accum_Sfc_RLatLon0.09_PT069H.grib2 2026-05-04 03:02 424K
20260504T00Z_MSC_RDPS_DownwardShortwaveRadiationFlux-Accum_NTAtm_RLatLon0.09_PT069H.grib2 2026-05-04 03:02 137K
20260504T00Z_MSC_RDPS_DownwardShortwaveRadiationFlux-Accum_Sfc_RLatLon0.09_PT069H.grib2 2026-05-04 03:02 625K
20260504T00Z_MSC_RDPS_FreezingRain-Accum1h_Sfc_RLatLon0.09_PT069H.grib2 2026-05-04 03:02 19K
20260504T00Z_MSC_RDPS_FreezingRain-Accum3h_Sfc_RLatLon0.09_PT069H.grib2 2026-05-04 03:02 30K
20260504T00Z_MSC_RDPS_FreezingRain-Accum_Sfc_RLatLon0.09_PT069H.grib2 2026-05-04 03:02 201K
20260504T00Z_MSC_RDPS_GeopotentialHeight_IsbL-0001_RLatLon0.09_PT069H.grib2 2026-05-04 03:02 347K
20260504T00Z_MSC_RDPS_GeopotentialHeight_IsbL-0005_RLatLon0.09_PT069H.grib2 2026-05-04 03:02 340K
20260504T00Z_MSC_RDPS_GeopotentialHeight_IsbL-0010_RLatLon0.09_PT069H.grib2 2026-05-04 03:02 308K
20260504T00Z_MSC_RDPS_GeopotentialHeight_IsbL-0020_RLatLon0.09_PT069H.grib2 2026-05-04 03:02 308K
20260504T00Z_MSC_RDPS_GeopotentialHeight_IsbL-0030_RLatLon0.09_PT069H.grib2 2026-05-04 03:02 407K
20260504T00Z_MSC_RDPS_GeopotentialHeight_IsbL-0050_RLatLon0.09_PT069H.grib2 2026-05-04 03:02 311K
20260504T00Z_MSC_RDPS_GeopotentialHeight_IsbL-0100_RLatLon0.09_PT069H.grib2 2026-05-04 03:02 288K
20260504T00Z_MSC_RDPS_GeopotentialHeight_IsbL-0150_RLatLon0.09_PT069H.grib2 2026-05-04 03:02 230K
20260504T00Z_MSC_RDPS_GeopotentialHeight_IsbL-0175_RLatLon0.09_PT069H.grib2 2026-05-04 03:02 233K
20260504T00Z_MSC_RDPS_GeopotentialHeight_IsbL-0200_RLatLon0.09_PT069H.grib2 2026-05-04 03:02 267K
20260504T00Z_MSC_RDPS_GeopotentialHeight_IsbL-0225_RLatLon0.09_PT069H.grib2 2026-05-04 03:02 269K
20260504T00Z_MSC_RDPS_GeopotentialHeight_IsbL-0250_RLatLon0.09_PT069H.grib2 2026-05-04 03:02 270K
20260504T00Z_MSC_RDPS_GeopotentialHeight_IsbL-0275_RLatLon0.09_PT069H.grib2 2026-05-04 03:02 238K
20260504T00Z_MSC_RDPS_GeopotentialHeight_IsbL-0300_RLatLon0.09_PT069H.grib2 2026-05-04 03:02 238K
20260504T00Z_MSC_RDPS_GeopotentialHeight_IsbL-0350_RLatLon0.09_PT069H.grib2 2026-05-04 03:02 234K
20260504T00Z_MSC_RDPS_GeopotentialHeight_IsbL-0400_RLatLon0.09_PT069H.grib2 2026-05-04 03:02 229K
20260504T00Z_MSC_RDPS_GeopotentialHeight_IsbL-0450_RLatLon0.09_PT069H.grib2 2026-05-04 03:02 297K
20260504T00Z_MSC_RDPS_GeopotentialHeight_IsbL-0500_RLatLon0.09_PT069H.grib2 2026-05-04 03:02 292K
20260504T00Z_MSC_RDPS_GeopotentialHeight_IsbL-0550_RLatLon0.09_PT069H.grib2 2026-05-04 03:02 289K
20260504T00Z_MSC_RDPS_GeopotentialHeight_IsbL-0600_RLatLon0.09_PT069H.grib2 2026-05-04 03:02 287K
20260504T00Z_MSC_RDPS_GeopotentialHeight_IsbL-0650_RLatLon0.09_PT069H.grib2 2026-05-04 03:02 257K
20260504T00Z_MSC_RDPS_GeopotentialHeight_IsbL-0700_RLatLon0.09_PT069H.grib2 2026-05-04 03:02 338K
20260504T00Z_MSC_RDPS_GeopotentialHeight_IsbL-0750_RLatLon0.09_PT069H.grib2 2026-05-04 03:02 340K
20260504T00Z_MSC_RDPS_GeopotentialHeight_IsbL-0800_RLatLon0.09_PT069H.grib2 2026-05-04 03:02 347K
20260504T00Z_MSC_RDPS_GeopotentialHeight_IsbL-0850_RLatLon0.09_PT069H.grib2 2026-05-04 03:02 390K
20260504T00Z_MSC_RDPS_GeopotentialHeight_IsbL-0875_RLatLon0.09_PT069H.grib2 2026-05-04 03:02 393K
20260504T00Z_MSC_RDPS_GeopotentialHeight_IsbL-0900_RLatLon0.09_PT069H.grib2 2026-05-04 03:02 396K
20260504T00Z_MSC_RDPS_GeopotentialHeight_IsbL-0925_RLatLon0.09_PT069H.grib2 2026-05-04 03:02 401K
20260504T00Z_MSC_RDPS_GeopotentialHeight_IsbL-0950_RLatLon0.09_PT069H.grib2 2026-05-04 03:02 403K
20260504T00Z_MSC_RDPS_GeopotentialHeight_IsbL-0970_RLatLon0.09_PT069H.grib2 2026-05-04 03:02 376K
20260504T00Z_MSC_RDPS_GeopotentialHeight_IsbL-0985_RLatLon0.09_PT069H.grib2 2026-05-04 03:02 384K
20260504T00Z_MSC_RDPS_GeopotentialHeight_IsbL-1000_RLatLon0.09_PT069H.grib2 2026-05-04 03:02 397K
20260504T00Z_MSC_RDPS_GeopotentialHeight_IsbL-1015_RLatLon0.09_PT069H.grib2 2026-05-04 03:02 412K
20260504T00Z_MSC_RDPS_Humidex_Sfc_RLatLon0.09_PT069H.grib2 2026-05-04 03:02 2.4M
20260504T00Z_MSC_RDPS_IcePellets-Accum1h_Sfc_RLatLon0.09_PT069H.grib2 2026-05-04 03:02 7.5K
20260504T00Z_MSC_RDPS_IcePellets-Accum3h_Sfc_RLatLon0.09_PT069H.grib2 2026-05-04 03:02 8.9K
20260504T00Z_MSC_RDPS_IcePellets-Accum_Sfc_RLatLon0.09_PT069H.grib2 2026-05-04 03:02 48K
20260504T00Z_MSC_RDPS_KIndex_Sfc_RLatLon0.09_PT069H.grib2 2026-05-04 03:02 2.5M
20260504T00Z_MSC_RDPS_LatentHeatNetFlux_Sfc_RLatLon0.09_PT069H.grib2 2026-05-04 03:02 307K
20260504T00Z_MSC_RDPS_LiftedIndex-MU-VT_IsbL-0500_RLatLon0.09_PT069H.grib2 2026-05-04 03:02 2.4M
20260504T00Z_MSC_RDPS_NetLongwaveRadiationFlux-Accum_Sfc_RLatLon0.09_PT069H.grib2 2026-05-04 03:02 607K
20260504T00Z_MSC_RDPS_NetShortwaveRadiationFlux-Accum_Sfc_RLatLon0.09_PT069H.grib2 2026-05-04 03:02 622K
20260504T00Z_MSC_RDPS_PlanetaryBoundaryLayerHeight_Sfc_RLatLon0.09_PT069H.grib2 2026-05-04 03:02 1.0M
20260504T00Z_MSC_RDPS_Precip-Accum1h_Sfc_RLatLon0.09_PT069H.grib2 2026-05-04 03:02 1.2M
20260504T00Z_MSC_RDPS_Precip-Accum3h_Sfc_RLatLon0.09_PT069H.grib2 2026-05-04 03:02 1.4M
20260504T00Z_MSC_RDPS_Precip-Accum_Sfc_RLatLon0.09_PT069H.grib2 2026-05-04 03:02 2.2M
20260504T00Z_MSC_RDPS_PrecipRate_Sfc_RLatLon0.09_PT069H.grib2 2026-05-04 03:02 167K
20260504T00Z_MSC_RDPS_PrecipType-Instant_Sfc_RLatLon0.09_PT069H.grib2 2026-05-04 03:02 584K
20260504T00Z_MSC_RDPS_Pressure-Trend3h_Sfc_RLatLon0.09_PT069H.grib2 2026-05-04 03:02 1.2M
20260504T00Z_MSC_RDPS_Pressure_MSL_RLatLon0.09_PT069H.grib2 2026-05-04 03:02 297K
20260504T00Z_MSC_RDPS_Pressure_PVU-1.5_RLatLon0.09_PT069H.grib2 2026-05-04 03:02 2.3M
20260504T00Z_MSC_RDPS_Pressure_PVU-1_RLatLon0.09_PT069H.grib2 2026-05-04 03:02 2.4M
20260504T00Z_MSC_RDPS_Pressure_PVU-2_RLatLon0.09_PT069H.grib2 2026-05-04 03:02 2.4M
20260504T00Z_MSC_RDPS_Pressure_Sfc_RLatLon0.09_PT069H.grib2 2026-05-04 03:02 498K
20260504T00Z_MSC_RDPS_RadiativeTemp_Sfc_RLatLon0.09_PT069H.grib2 2026-05-04 03:02 325K
20260504T00Z_MSC_RDPS_Rain-Accum1h_Sfc_RLatLon0.09_PT069H.grib2 2026-05-04 03:02 555K
20260504T00Z_MSC_RDPS_Rain-Accum3h_Sfc_RLatLon0.09_PT069H.grib2 2026-05-04 03:02 725K
20260504T00Z_MSC_RDPS_Rain-Accum_Sfc_RLatLon0.09_PT069H.grib2 2026-05-04 03:02 1.8M
20260504T00Z_MSC_RDPS_RelativeHumidity_AGL-2m_RLatLon0.09_PT069H.grib2 2026-05-04 03:02 1.0M
20260504T00Z_MSC_RDPS_RelativeHumidity_IsbL-0010_RLatLon0.09_PT069H.grib2 2026-05-04 03:02 674K
20260504T00Z_MSC_RDPS_RelativeHumidity_IsbL-0020_RLatLon0.09_PT069H.grib2 2026-05-04 03:02 719K
20260504T00Z_MSC_RDPS_RelativeHumidity_IsbL-0030_RLatLon0.09_PT069H.grib2 2026-05-04 03:02 598K
20260504T00Z_MSC_RDPS_RelativeHumidity_IsbL-0050_RLatLon0.09_PT069H.grib2 2026-05-04 03:02 358K
20260504T00Z_MSC_RDPS_RelativeHumidity_IsbL-0100_RLatLon0.09_PT069H.grib2 2026-05-04 03:02 271K
20260504T00Z_MSC_RDPS_RelativeHumidity_IsbL-0150_RLatLon0.09_PT069H.grib2 2026-05-04 03:02 416K
20260504T00Z_MSC_RDPS_RelativeHumidity_IsbL-0175_RLatLon0.09_PT069H.grib2 2026-05-04 03:02 480K
20260504T00Z_MSC_RDPS_RelativeHumidity_IsbL-0200_RLatLon0.09_PT069H.grib2 2026-05-04 03:02 556K
20260504T00Z_MSC_RDPS_RelativeHumidity_IsbL-0225_RLatLon0.09_PT069H.grib2 2026-05-04 03:02 624K
20260504T00Z_MSC_RDPS_RelativeHumidity_IsbL-0250_RLatLon0.09_PT069H.grib2 2026-05-04 03:02 686K
20260504T00Z_MSC_RDPS_RelativeHumidity_IsbL-0275_RLatLon0.09_PT069H.grib2 2026-05-04 03:02 709K
20260504T00Z_MSC_RDPS_RelativeHumidity_IsbL-0300_RLatLon0.09_PT069H.grib2 2026-05-04 03:02 756K
20260504T00Z_MSC_RDPS_RelativeHumidity_IsbL-0350_RLatLon0.09_PT069H.grib2 2026-05-04 03:02 784K
20260504T00Z_MSC_RDPS_RelativeHumidity_IsbL-0400_RLatLon0.09_PT069H.grib2 2026-05-04 03:02 801K
20260504T00Z_MSC_RDPS_RelativeHumidity_IsbL-0450_RLatLon0.09_PT069H.grib2 2026-05-04 03:02 801K
20260504T00Z_MSC_RDPS_RelativeHumidity_IsbL-0500_RLatLon0.09_PT069H.grib2 2026-05-04 03:02 799K
20260504T00Z_MSC_RDPS_RelativeHumidity_IsbL-0550_RLatLon0.09_PT069H.grib2 2026-05-04 03:02 817K
20260504T00Z_MSC_RDPS_RelativeHumidity_IsbL-0600_RLatLon0.09_PT069H.grib2 2026-05-04 03:02 845K
20260504T00Z_MSC_RDPS_RelativeHumidity_IsbL-0650_RLatLon0.09_PT069H.grib2 2026-05-04 03:02 858K
20260504T00Z_MSC_RDPS_RelativeHumidity_IsbL-0700_RLatLon0.09_PT069H.grib2 2026-05-04 03:02 874K
20260504T00Z_MSC_RDPS_RelativeHumidity_IsbL-0750_RLatLon0.09_PT069H.grib2 2026-05-04 03:02 916K
20260504T00Z_MSC_RDPS_RelativeHumidity_IsbL-0800_RLatLon0.09_PT069H.grib2 2026-05-04 03:02 1.0M
20260504T00Z_MSC_RDPS_RelativeHumidity_IsbL-0850_RLatLon0.09_PT069H.grib2 2026-05-04 03:02 1.0M
20260504T00Z_MSC_RDPS_RelativeHumidity_IsbL-0875_RLatLon0.09_PT069H.grib2 2026-05-04 03:02 1.1M
20260504T00Z_MSC_RDPS_RelativeHumidity_IsbL-0900_RLatLon0.09_PT069H.grib2 2026-05-04 03:02 1.1M
20260504T00Z_MSC_RDPS_RelativeHumidity_IsbL-0925_RLatLon0.09_PT069H.grib2 2026-05-04 03:02 1.1M
20260504T00Z_MSC_RDPS_RelativeHumidity_IsbL-0950_RLatLon0.09_PT069H.grib2 2026-05-04 03:02 1.1M
20260504T00Z_MSC_RDPS_RelativeHumidity_IsbL-0970_RLatLon0.09_PT069H.grib2 2026-05-04 03:02 1.0M
20260504T00Z_MSC_RDPS_RelativeHumidity_IsbL-0985_RLatLon0.09_PT069H.grib2 2026-05-04 03:02 1.0M
20260504T00Z_MSC_RDPS_RelativeHumidity_IsbL-1000_RLatLon0.09_PT069H.grib2 2026-05-04 03:02 1.0M
20260504T00Z_MSC_RDPS_RelativeHumidity_IsbL-1015_RLatLon0.09_PT069H.grib2 2026-05-04 03:02 1.0M
20260504T00Z_MSC_RDPS_Runoff-Accum_Sfc_RLatLon0.09_PT069H.grib2 2026-05-04 03:02 65K
20260504T00Z_MSC_RDPS_SWEATIndex_Sfc_RLatLon0.09_PT069H.grib2 2026-05-04 03:02 2.4M
20260504T00Z_MSC_RDPS_SeeingIndex_EAtm_RLatLon0.09_PT069H.grib2 2026-05-04 03:02 1.0M
20260504T00Z_MSC_RDPS_SensibleHeatNetFlux_Sfc_RLatLon0.09_PT069H.grib2 2026-05-04 03:02 356K
20260504T00Z_MSC_RDPS_ShowalterIndex_IsbL-0500_RLatLon0.09_PT069H.grib2 2026-05-04 03:02 2.6M
20260504T00Z_MSC_RDPS_SkyTransparencyIndex_EAtm_RLatLon0.09_PT069H.grib2 2026-05-04 03:02 712K
20260504T00Z_MSC_RDPS_Snow-Accum1h_Sfc_RLatLon0.09_PT069H.grib2 2026-05-04 03:02 448K
20260504T00Z_MSC_RDPS_Snow-Accum3h_Sfc_RLatLon0.09_PT069H.grib2 2026-05-04 03:02 458K
20260504T00Z_MSC_RDPS_Snow-Accum_Sfc_RLatLon0.09_PT069H.grib2 2026-05-04 03:02 786K
20260504T00Z_MSC_RDPS_SnowDensity_Sfc_RLatLon0.09_PT069H.grib2 2026-05-04 03:02 175K
20260504T00Z_MSC_RDPS_SnowDepth_Sfc_RLatLon0.09_PT069H.grib2 2026-05-04 03:02 650K
20260504T00Z_MSC_RDPS_SoilTemp_DBS-0to10cm_RLatLon0.09_PT069H.grib2 2026-05-04 03:02 247K
20260504T00Z_MSC_RDPS_SoilTemp_Sfc_RLatLon0.09_PT069H.grib2 2026-05-04 03:02 287K
20260504T00Z_MSC_RDPS_SoilVolumetricIceContent_Sfc_RLatLon0.09_PT069H.grib2 2026-05-04 03:02 150K
20260504T00Z_MSC_RDPS_SoilVolumetricWaterContent_DBS-0to10cm_RLatLon0.09_PT069H.grib2 2026-05-04 03:02 281K
20260504T00Z_MSC_RDPS_SoilVolumetricWaterContent_DBS-0to1cm_RLatLon0.09_PT069H.grib2 2026-05-04 03:02 343K
20260504T00Z_MSC_RDPS_SpecificHumidity_AGL-120m_RLatLon0.09_PT069H.grib2 2026-05-04 03:02 500K
20260504T00Z_MSC_RDPS_SpecificHumidity_AGL-2m_RLatLon0.09_PT069H.grib2 2026-05-04 03:02 669K
20260504T00Z_MSC_RDPS_SpecificHumidity_AGL-40m_RLatLon0.09_PT069H.grib2 2026-05-04 03:02 504K
20260504T00Z_MSC_RDPS_SpecificHumidity_AGL-80m_RLatLon0.09_PT069H.grib2 2026-05-04 03:02 501K
20260504T00Z_MSC_RDPS_SpecificHumidity_IsbL-0001_RLatLon0.09_PT069H.grib2 2026-05-04 03:02 382K
20260504T00Z_MSC_RDPS_SpecificHumidity_IsbL-0005_RLatLon0.09_PT069H.grib2 2026-05-04 03:02 366K
20260504T00Z_MSC_RDPS_SpecificHumidity_IsbL-0010_RLatLon0.09_PT069H.grib2 2026-05-04 03:02 399K
20260504T00Z_MSC_RDPS_SpecificHumidity_IsbL-0020_RLatLon0.09_PT069H.grib2 2026-05-04 03:02 374K
20260504T00Z_MSC_RDPS_SpecificHumidity_IsbL-0030_RLatLon0.09_PT069H.grib2 2026-05-04 03:02 363K
20260504T00Z_MSC_RDPS_SpecificHumidity_IsbL-0050_RLatLon0.09_PT069H.grib2 2026-05-04 03:02 472K
20260504T00Z_MSC_RDPS_SpecificHumidity_IsbL-0100_RLatLon0.09_PT069H.grib2 2026-05-04 03:02 442K
20260504T00Z_MSC_RDPS_SpecificHumidity_IsbL-0150_RLatLon0.09_PT069H.grib2 2026-05-04 03:02 463K
20260504T00Z_MSC_RDPS_SpecificHumidity_IsbL-0175_RLatLon0.09_PT069H.grib2 2026-05-04 03:02 449K
20260504T00Z_MSC_RDPS_SpecificHumidity_IsbL-0200_RLatLon0.09_PT069H.grib2 2026-05-04 03:02 478K
20260504T00Z_MSC_RDPS_SpecificHumidity_IsbL-0225_RLatLon0.09_PT069H.grib2 2026-05-04 03:02 459K
20260504T00Z_MSC_RDPS_SpecificHumidity_IsbL-0250_RLatLon0.09_PT069H.grib2 2026-05-04 03:02 517K
20260504T00Z_MSC_RDPS_SpecificHumidity_IsbL-0275_RLatLon0.09_PT069H.grib2 2026-05-04 03:02 475K
20260504T00Z_MSC_RDPS_SpecificHumidity_IsbL-0300_RLatLon0.09_PT069H.grib2 2026-05-04 03:02 450K
20260504T00Z_MSC_RDPS_SpecificHumidity_IsbL-0350_RLatLon0.09_PT069H.grib2 2026-05-04 03:02 546K
20260504T00Z_MSC_RDPS_SpecificHumidity_IsbL-0400_RLatLon0.09_PT069H.grib2 2026-05-04 03:02 529K
20260504T00Z_MSC_RDPS_SpecificHumidity_IsbL-0450_RLatLon0.09_PT069H.grib2 2026-05-04 03:02 577K
20260504T00Z_MSC_RDPS_SpecificHumidity_IsbL-0500_RLatLon0.09_PT069H.grib2 2026-05-04 03:02 506K
20260504T00Z_MSC_RDPS_SpecificHumidity_IsbL-0550_RLatLon0.09_PT069H.grib2 2026-05-04 03:02 581K
20260504T00Z_MSC_RDPS_SpecificHumidity_IsbL-0600_RLatLon0.09_PT069H.grib2 2026-05-04 03:02 634K
20260504T00Z_MSC_RDPS_SpecificHumidity_IsbL-0650_RLatLon0.09_PT069H.grib2 2026-05-04 03:02 551K
20260504T00Z_MSC_RDPS_SpecificHumidity_IsbL-0700_RLatLon0.09_PT069H.grib2 2026-05-04 03:02 594K
20260504T00Z_MSC_RDPS_SpecificHumidity_IsbL-0750_RLatLon0.09_PT069H.grib2 2026-05-04 03:02 661K
20260504T00Z_MSC_RDPS_SpecificHumidity_IsbL-0800_RLatLon0.09_PT069H.grib2 2026-05-04 03:02 739K
20260504T00Z_MSC_RDPS_SpecificHumidity_IsbL-0850_RLatLon0.09_PT069H.grib2 2026-05-04 03:02 822K
20260504T00Z_MSC_RDPS_SpecificHumidity_IsbL-0875_RLatLon0.09_PT069H.grib2 2026-05-04 03:02 708K
20260504T00Z_MSC_RDPS_SpecificHumidity_IsbL-0900_RLatLon0.09_PT069H.grib2 2026-05-04 03:02 718K
20260504T00Z_MSC_RDPS_SpecificHumidity_IsbL-0925_RLatLon0.09_PT069H.grib2 2026-05-04 03:02 720K
20260504T00Z_MSC_RDPS_SpecificHumidity_IsbL-0950_RLatLon0.09_PT069H.grib2 2026-05-04 03:02 717K
20260504T00Z_MSC_RDPS_SpecificHumidity_IsbL-0970_RLatLon0.09_PT069H.grib2 2026-05-04 03:02 708K
20260504T00Z_MSC_RDPS_SpecificHumidity_IsbL-0985_RLatLon0.09_PT069H.grib2 2026-05-04 03:02 702K
20260504T00Z_MSC_RDPS_SpecificHumidity_IsbL-1000_RLatLon0.09_PT069H.grib2 2026-05-04 03:02 698K
20260504T00Z_MSC_RDPS_SpecificHumidity_IsbL-1015_RLatLon0.09_PT069H.grib2 2026-05-04 03:02 686K
20260504T00Z_MSC_RDPS_SpecificHumidity_Sfc_RLatLon0.09_PT069H.grib2 2026-05-04 03:02 347K
20260504T00Z_MSC_RDPS_StormRelativeHelicity_EtaL-10000_RLatLon0.09_PT069H.grib2 2026-05-04 03:02 1.1M
20260504T00Z_MSC_RDPS_StormSeverityIndex_EtaL-10000_RLatLon0.09_PT069H.grib2 2026-05-04 03:02 1.2M
20260504T00Z_MSC_RDPS_Thickness_IsbL-0850to0700_RLatLon0.09_PT069H.grib2 2026-05-04 03:02 177K
20260504T00Z_MSC_RDPS_Thickness_IsbL-1000to0500_RLatLon0.09_PT069H.grib2 2026-05-04 03:02 198K
20260504T00Z_MSC_RDPS_Thickness_IsbL-1000to0850_RLatLon0.09_PT069H.grib2 2026-05-04 03:02 186K
20260504T00Z_MSC_RDPS_TotalCloudCover_Sfc_RLatLon0.09_PT069H.grib2 2026-05-04 03:02 659K
20260504T00Z_MSC_RDPS_TotalTotalsIndex_Sfc_RLatLon0.09_PT069H.grib2 2026-05-04 03:02 2.4M
20260504T00Z_MSC_RDPS_UVIndex-ClearSky_Sfc_RLatLon0.09_PT069H.grib2 2026-05-04 03:02 205K
20260504T00Z_MSC_RDPS_UVIndex_Sfc_RLatLon0.09_PT069H.grib2 2026-05-04 03:02 479K
20260504T00Z_MSC_RDPS_UpwardLongwaveRadiationFlux_NTAtm_RLatLon0.09_PT069H.grib2 2026-05-04 03:02 381K
20260504T00Z_MSC_RDPS_UpwardShortwaveRadiationFlux_NTAtm_RLatLon0.09_PT069H.grib2 2026-05-04 03:02 514K
20260504T00Z_MSC_RDPS_VerticalVelocity_IsbL-0250_RLatLon0.09_PT069H.grib2 2026-05-04 03:02 550K
20260504T00Z_MSC_RDPS_VerticalVelocity_IsbL-0500_RLatLon0.09_PT069H.grib2 2026-05-04 03:02 546K
20260504T00Z_MSC_RDPS_VerticalVelocity_IsbL-0700_RLatLon0.09_PT069H.grib2 2026-05-04 03:02 595K
20260504T00Z_MSC_RDPS_VerticalVelocity_IsbL-0850_RLatLon0.09_PT069H.grib2 2026-05-04 03:02 698K
20260504T00Z_MSC_RDPS_VerticalWindShear_EtaL-6500_RLatLon0.09_PT069H.grib2 2026-05-04 03:02 1.2M
20260504T00Z_MSC_RDPS_WindChill_Sfc_RLatLon0.09_PT069H.grib2 2026-05-04 03:02 1.1M
20260504T00Z_MSC_RDPS_WindDir_AGL-10m_RLatLon0.09_PT069H.grib2 2026-05-04 03:02 955K
20260504T00Z_MSC_RDPS_WindDir_AGL-120m_RLatLon0.09_PT069H.grib2 2026-05-04 03:02 603K
20260504T00Z_MSC_RDPS_WindDir_AGL-40m_RLatLon0.09_PT069H.grib2 2026-05-04 03:02 624K
20260504T00Z_MSC_RDPS_WindDir_AGL-80m_RLatLon0.09_PT069H.grib2 2026-05-04 03:02 612K
20260504T00Z_MSC_RDPS_WindDir_IsbL-0001_RLatLon0.09_PT069H.grib2 2026-05-04 03:02 297K
20260504T00Z_MSC_RDPS_WindDir_IsbL-0005_RLatLon0.09_PT069H.grib2 2026-05-04 03:02 374K
20260504T00Z_MSC_RDPS_WindDir_IsbL-0010_RLatLon0.09_PT069H.grib2 2026-05-04 03:02 383K
20260504T00Z_MSC_RDPS_WindDir_IsbL-0020_RLatLon0.09_PT069H.grib2 2026-05-04 03:02 401K
20260504T00Z_MSC_RDPS_WindDir_IsbL-0030_RLatLon0.09_PT069H.grib2 2026-05-04 03:02 400K
20260504T00Z_MSC_RDPS_WindDir_IsbL-0050_RLatLon0.09_PT069H.grib2 2026-05-04 03:02 419K
20260504T00Z_MSC_RDPS_WindDir_IsbL-0100_RLatLon0.09_PT069H.grib2 2026-05-04 03:02 413K
20260504T00Z_MSC_RDPS_WindDir_IsbL-0150_RLatLon0.09_PT069H.grib2 2026-05-04 03:02 416K
20260504T00Z_MSC_RDPS_WindDir_IsbL-0175_RLatLon0.09_PT069H.grib2 2026-05-04 03:02 440K
20260504T00Z_MSC_RDPS_WindDir_IsbL-0200_RLatLon0.09_PT069H.grib2 2026-05-04 03:02 456K
20260504T00Z_MSC_RDPS_WindDir_IsbL-0225_RLatLon0.09_PT069H.grib2 2026-05-04 03:02 463K
20260504T00Z_MSC_RDPS_WindDir_IsbL-0250_RLatLon0.09_PT069H.grib2 2026-05-04 03:02 453K
20260504T00Z_MSC_RDPS_WindDir_IsbL-0275_RLatLon0.09_PT069H.grib2 2026-05-04 03:02 471K
20260504T00Z_MSC_RDPS_WindDir_IsbL-0300_RLatLon0.09_PT069H.grib2 2026-05-04 03:02 467K
20260504T00Z_MSC_RDPS_WindDir_IsbL-0350_RLatLon0.09_PT069H.grib2 2026-05-04 03:02 496K
20260504T00Z_MSC_RDPS_WindDir_IsbL-0400_RLatLon0.09_PT069H.grib2 2026-05-04 03:02 519K
20260504T00Z_MSC_RDPS_WindDir_IsbL-0450_RLatLon0.09_PT069H.grib2 2026-05-04 03:02 534K
20260504T00Z_MSC_RDPS_WindDir_IsbL-0500_RLatLon0.09_PT069H.grib2 2026-05-04 03:02 544K
20260504T00Z_MSC_RDPS_WindDir_IsbL-0550_RLatLon0.09_PT069H.grib2 2026-05-04 03:02 558K
20260504T00Z_MSC_RDPS_WindDir_IsbL-0600_RLatLon0.09_PT069H.grib2 2026-05-04 03:02 589K
20260504T00Z_MSC_RDPS_WindDir_IsbL-0650_RLatLon0.09_PT069H.grib2 2026-05-04 03:02 632K
20260504T00Z_MSC_RDPS_WindDir_IsbL-0700_RLatLon0.09_PT069H.grib2 2026-05-04 03:02 675K
20260504T00Z_MSC_RDPS_WindDir_IsbL-0750_RLatLon0.09_PT069H.grib2 2026-05-04 03:02 717K
20260504T00Z_MSC_RDPS_WindDir_IsbL-0800_RLatLon0.09_PT069H.grib2 2026-05-04 03:02 785K
20260504T00Z_MSC_RDPS_WindDir_IsbL-0850_RLatLon0.09_PT069H.grib2 2026-05-04 03:02 859K
20260504T00Z_MSC_RDPS_WindDir_IsbL-0875_RLatLon0.09_PT069H.grib2 2026-05-04 03:02 886K
20260504T00Z_MSC_RDPS_WindDir_IsbL-0900_RLatLon0.09_PT069H.grib2 2026-05-04 03:02 899K
20260504T00Z_MSC_RDPS_WindDir_IsbL-0925_RLatLon0.09_PT069H.grib2 2026-05-04 03:02 910K
20260504T00Z_MSC_RDPS_WindDir_IsbL-0950_RLatLon0.09_PT069H.grib2 2026-05-04 03:02 908K
20260504T00Z_MSC_RDPS_WindDir_IsbL-0970_RLatLon0.09_PT069H.grib2 2026-05-04 03:02 911K
20260504T00Z_MSC_RDPS_WindDir_IsbL-0985_RLatLon0.09_PT069H.grib2 2026-05-04 03:02 920K
20260504T00Z_MSC_RDPS_WindDir_IsbL-1000_RLatLon0.09_PT069H.grib2 2026-05-04 03:02 932K
20260504T00Z_MSC_RDPS_WindDir_IsbL-1015_RLatLon0.09_PT069H.grib2 2026-05-04 03:02 947K
20260504T00Z_MSC_RDPS_WindGust-Max_AGL-10m_RLatLon0.09_PT069H.grib2 2026-05-04 03:02 945K
20260504T00Z_MSC_RDPS_WindGust-Min_AGL-10m_RLatLon0.09_PT069H.grib2 2026-05-04 03:02 1.0M
20260504T00Z_MSC_RDPS_WindGust_AGL-10m_RLatLon0.09_PT069H.grib2 2026-05-04 03:02 1.0M
20260504T00Z_MSC_RDPS_WindSpeed_AGL-10m_RLatLon0.09_PT069H.grib2 2026-05-04 03:02 839K
20260504T00Z_MSC_RDPS_WindSpeed_AGL-120m_RLatLon0.09_PT069H.grib2 2026-05-04 03:02 533K
20260504T00Z_MSC_RDPS_WindSpeed_AGL-40m_RLatLon0.09_PT069H.grib2 2026-05-04 03:02 539K
20260504T00Z_MSC_RDPS_WindSpeed_AGL-80m_RLatLon0.09_PT069H.grib2 2026-05-04 03:02 534K
20260504T00Z_MSC_RDPS_WindSpeed_IsbL-0001_RLatLon0.09_PT069H.grib2 2026-05-04 03:02 335K
20260504T00Z_MSC_RDPS_WindSpeed_IsbL-0005_RLatLon0.09_PT069H.grib2 2026-05-04 03:02 381K
20260504T00Z_MSC_RDPS_WindSpeed_IsbL-0010_RLatLon0.09_PT069H.grib2 2026-05-04 03:02 399K
20260504T00Z_MSC_RDPS_WindSpeed_IsbL-0020_RLatLon0.09_PT069H.grib2 2026-05-04 03:02 421K
20260504T00Z_MSC_RDPS_WindSpeed_IsbL-0030_RLatLon0.09_PT069H.grib2 2026-05-04 03:02 319K
20260504T00Z_MSC_RDPS_WindSpeed_IsbL-0050_RLatLon0.09_PT069H.grib2 2026-05-04 03:02 348K
20260504T00Z_MSC_RDPS_WindSpeed_IsbL-0100_RLatLon0.09_PT069H.grib2 2026-05-04 03:02 433K
20260504T00Z_MSC_RDPS_WindSpeed_IsbL-0150_RLatLon0.09_PT069H.grib2 2026-05-04 03:02 399K
20260504T00Z_MSC_RDPS_WindSpeed_IsbL-0175_RLatLon0.09_PT069H.grib2 2026-05-04 03:02 424K
20260504T00Z_MSC_RDPS_WindSpeed_IsbL-0200_RLatLon0.09_PT069H.grib2 2026-05-04 03:02 441K
20260504T00Z_MSC_RDPS_WindSpeed_IsbL-0225_RLatLon0.09_PT069H.grib2 2026-05-04 03:02 445K
20260504T00Z_MSC_RDPS_WindSpeed_IsbL-0250_RLatLon0.09_PT069H.grib2 2026-05-04 03:02 446K
20260504T00Z_MSC_RDPS_WindSpeed_IsbL-0275_RLatLon0.09_PT069H.grib2 2026-05-04 03:02 464K
20260504T00Z_MSC_RDPS_WindSpeed_IsbL-0300_RLatLon0.09_PT069H.grib2 2026-05-04 03:02 464K
20260504T00Z_MSC_RDPS_WindSpeed_IsbL-0350_RLatLon0.09_PT069H.grib2 2026-05-04 03:02 478K
20260504T00Z_MSC_RDPS_WindSpeed_IsbL-0400_RLatLon0.09_PT069H.grib2 2026-05-04 03:02 466K
20260504T00Z_MSC_RDPS_WindSpeed_IsbL-0450_RLatLon0.09_PT069H.grib2 2026-05-04 03:02 463K
20260504T00Z_MSC_RDPS_WindSpeed_IsbL-0500_RLatLon0.09_PT069H.grib2 2026-05-04 03:02 579K
20260504T00Z_MSC_RDPS_WindSpeed_IsbL-0550_RLatLon0.09_PT069H.grib2 2026-05-04 03:02 580K
20260504T00Z_MSC_RDPS_WindSpeed_IsbL-0600_RLatLon0.09_PT069H.grib2 2026-05-04 03:02 589K
20260504T00Z_MSC_RDPS_WindSpeed_IsbL-0650_RLatLon0.09_PT069H.grib2 2026-05-04 03:02 654K
20260504T00Z_MSC_RDPS_WindSpeed_IsbL-0700_RLatLon0.09_PT069H.grib2 2026-05-04 03:02 678K
20260504T00Z_MSC_RDPS_WindSpeed_IsbL-0750_RLatLon0.09_PT069H.grib2 2026-05-04 03:02 707K
20260504T00Z_MSC_RDPS_WindSpeed_IsbL-0800_RLatLon0.09_PT069H.grib2 2026-05-04 03:02 755K
20260504T00Z_MSC_RDPS_WindSpeed_IsbL-0850_RLatLon0.09_PT069H.grib2 2026-05-04 03:02 818K
20260504T00Z_MSC_RDPS_WindSpeed_IsbL-0875_RLatLon0.09_PT069H.grib2 2026-05-04 03:02 840K
20260504T00Z_MSC_RDPS_WindSpeed_IsbL-0900_RLatLon0.09_PT069H.grib2 2026-05-04 03:02 809K
20260504T00Z_MSC_RDPS_WindSpeed_IsbL-0925_RLatLon0.09_PT069H.grib2 2026-05-04 03:02 818K
20260504T00Z_MSC_RDPS_WindSpeed_IsbL-0950_RLatLon0.09_PT069H.grib2 2026-05-04 03:02 865K
20260504T00Z_MSC_RDPS_WindSpeed_IsbL-0970_RLatLon0.09_PT069H.grib2 2026-05-04 03:02 863K
20260504T00Z_MSC_RDPS_WindSpeed_IsbL-0985_RLatLon0.09_PT069H.grib2 2026-05-04 03:02 859K
20260504T00Z_MSC_RDPS_WindSpeed_IsbL-1000_RLatLon0.09_PT069H.grib2 2026-05-04 03:02 849K
20260504T00Z_MSC_RDPS_WindSpeed_IsbL-1015_RLatLon0.09_PT069H.grib2 2026-05-04 03:02 840K
20260504T00Z_MSC_RDPS_WindU_AGL-10m_RLatLon0.09_PT069H.grib2 2026-05-04 03:02 434K
20260504T00Z_MSC_RDPS_WindU_AGL-120m_RLatLon0.09_PT069H.grib2 2026-05-04 03:02 416K
20260504T00Z_MSC_RDPS_WindU_AGL-40m_RLatLon0.09_PT069H.grib2 2026-05-04 03:02 536K
20260504T00Z_MSC_RDPS_WindU_AGL-80m_RLatLon0.09_PT069H.grib2 2026-05-04 03:02 417K
20260504T00Z_MSC_RDPS_WindU_IsbL-0001_RLatLon0.09_PT069H.grib2 2026-05-04 03:02 244K
20260504T00Z_MSC_RDPS_WindU_IsbL-0005_RLatLon0.09_PT069H.grib2 2026-05-04 03:02 285K
20260504T00Z_MSC_RDPS_WindU_IsbL-0010_RLatLon0.09_PT069H.grib2 2026-05-04 03:02 299K
20260504T00Z_MSC_RDPS_WindU_IsbL-0020_RLatLon0.09_PT069H.grib2 2026-05-04 03:02 316K
20260504T00Z_MSC_RDPS_WindU_IsbL-0030_RLatLon0.09_PT069H.grib2 2026-05-04 03:02 351K
20260504T00Z_MSC_RDPS_WindU_IsbL-0050_RLatLon0.09_PT069H.grib2 2026-05-04 03:02 378K
20260504T00Z_MSC_RDPS_WindU_IsbL-0100_RLatLon0.09_PT069H.grib2 2026-05-04 03:02 332K
20260504T00Z_MSC_RDPS_WindU_IsbL-0150_RLatLon0.09_PT069H.grib2 2026-05-04 03:02 393K
20260504T00Z_MSC_RDPS_WindU_IsbL-0175_RLatLon0.09_PT069H.grib2 2026-05-04 03:02 416K
20260504T00Z_MSC_RDPS_WindU_IsbL-0200_RLatLon0.09_PT069H.grib2 2026-05-04 03:02 335K
20260504T00Z_MSC_RDPS_WindU_IsbL-0225_RLatLon0.09_PT069H.grib2 2026-05-04 03:02 338K
20260504T00Z_MSC_RDPS_WindU_IsbL-0250_RLatLon0.09_PT069H.grib2 2026-05-04 03:02 338K
20260504T00Z_MSC_RDPS_WindU_IsbL-0275_RLatLon0.09_PT069H.grib2 2026-05-04 03:02 352K
20260504T00Z_MSC_RDPS_WindU_IsbL-0300_RLatLon0.09_PT069H.grib2 2026-05-04 03:02 350K
20260504T00Z_MSC_RDPS_WindU_IsbL-0350_RLatLon0.09_PT069H.grib2 2026-05-04 03:02 362K
20260504T00Z_MSC_RDPS_WindU_IsbL-0400_RLatLon0.09_PT069H.grib2 2026-05-04 03:02 469K
20260504T00Z_MSC_RDPS_WindU_IsbL-0450_RLatLon0.09_PT069H.grib2 2026-05-04 03:02 468K
20260504T00Z_MSC_RDPS_WindU_IsbL-0500_RLatLon0.09_PT069H.grib2 2026-05-04 03:02 467K
20260504T00Z_MSC_RDPS_WindU_IsbL-0550_RLatLon0.09_PT069H.grib2 2026-05-04 03:02 469K
20260504T00Z_MSC_RDPS_WindU_IsbL-0600_RLatLon0.09_PT069H.grib2 2026-05-04 03:02 478K
20260504T00Z_MSC_RDPS_WindU_IsbL-0650_RLatLon0.09_PT069H.grib2 2026-05-04 03:02 497K
20260504T00Z_MSC_RDPS_WindU_IsbL-0700_RLatLon0.09_PT069H.grib2 2026-05-04 03:02 502K
20260504T00Z_MSC_RDPS_WindU_IsbL-0750_RLatLon0.09_PT069H.grib2 2026-05-04 03:02 528K
20260504T00Z_MSC_RDPS_WindU_IsbL-0800_RLatLon0.09_PT069H.grib2 2026-05-04 03:02 570K
20260504T00Z_MSC_RDPS_WindU_IsbL-0850_RLatLon0.09_PT069H.grib2 2026-05-04 03:02 634K
20260504T00Z_MSC_RDPS_WindU_IsbL-0875_RLatLon0.09_PT069H.grib2 2026-05-04 03:02 652K
20260504T00Z_MSC_RDPS_WindU_IsbL-0900_RLatLon0.09_PT069H.grib2 2026-05-04 03:02 662K
20260504T00Z_MSC_RDPS_WindU_IsbL-0925_RLatLon0.09_PT069H.grib2 2026-05-04 03:02 669K
20260504T00Z_MSC_RDPS_WindU_IsbL-0950_RLatLon0.09_PT069H.grib2 2026-05-04 03:02 659K
20260504T00Z_MSC_RDPS_WindU_IsbL-0970_RLatLon0.09_PT069H.grib2 2026-05-04 03:02 655K
20260504T00Z_MSC_RDPS_WindU_IsbL-0985_RLatLon0.09_PT069H.grib2 2026-05-04 03:02 653K
20260504T00Z_MSC_RDPS_WindU_IsbL-1000_RLatLon0.09_PT069H.grib2 2026-05-04 03:02 648K
20260504T00Z_MSC_RDPS_WindU_IsbL-1015_RLatLon0.09_PT069H.grib2 2026-05-04 03:02 782K
20260504T00Z_MSC_RDPS_WindV_AGL-10m_RLatLon0.09_PT069H.grib2 2026-05-04 03:02 432K
20260504T00Z_MSC_RDPS_WindV_AGL-120m_RLatLon0.09_PT069H.grib2 2026-05-04 03:02 529K
20260504T00Z_MSC_RDPS_WindV_AGL-40m_RLatLon0.09_PT069H.grib2 2026-05-04 03:02 533K
20260504T00Z_MSC_RDPS_WindV_AGL-80m_RLatLon0.09_PT069H.grib2 2026-05-04 03:02 530K
20260504T00Z_MSC_RDPS_WindV_IsbL-0001_RLatLon0.09_PT069H.grib2 2026-05-04 03:02 247K
20260504T00Z_MSC_RDPS_WindV_IsbL-0005_RLatLon0.09_PT069H.grib2 2026-05-04 03:02 288K
20260504T00Z_MSC_RDPS_WindV_IsbL-0010_RLatLon0.09_PT069H.grib2 2026-05-04 03:02 301K
20260504T00Z_MSC_RDPS_WindV_IsbL-0020_RLatLon0.09_PT069H.grib2 2026-05-04 03:02 319K
20260504T00Z_MSC_RDPS_WindV_IsbL-0030_RLatLon0.09_PT069H.grib2 2026-05-04 03:02 316K
20260504T00Z_MSC_RDPS_WindV_IsbL-0050_RLatLon0.09_PT069H.grib2 2026-05-04 03:02 343K
20260504T00Z_MSC_RDPS_WindV_IsbL-0100_RLatLon0.09_PT069H.grib2 2026-05-04 03:02 327K
20260504T00Z_MSC_RDPS_WindV_IsbL-0150_RLatLon0.09_PT069H.grib2 2026-05-04 03:02 389K
20260504T00Z_MSC_RDPS_WindV_IsbL-0175_RLatLon0.09_PT069H.grib2 2026-05-04 03:02 414K
20260504T00Z_MSC_RDPS_WindV_IsbL-0200_RLatLon0.09_PT069H.grib2 2026-05-04 03:02 431K
20260504T00Z_MSC_RDPS_WindV_IsbL-0225_RLatLon0.09_PT069H.grib2 2026-05-04 03:02 434K
20260504T00Z_MSC_RDPS_WindV_IsbL-0250_RLatLon0.09_PT069H.grib2 2026-05-04 03:02 337K
20260504T00Z_MSC_RDPS_WindV_IsbL-0275_RLatLon0.09_PT069H.grib2 2026-05-04 03:02 351K
20260504T00Z_MSC_RDPS_WindV_IsbL-0300_RLatLon0.09_PT069H.grib2 2026-05-04 03:02 375K
20260504T00Z_MSC_RDPS_WindV_IsbL-0350_RLatLon0.09_PT069H.grib2 2026-05-04 03:02 361K
20260504T00Z_MSC_RDPS_WindV_IsbL-0400_RLatLon0.09_PT069H.grib2 2026-05-04 03:02 365K
20260504T00Z_MSC_RDPS_WindV_IsbL-0450_RLatLon0.09_PT069H.grib2 2026-05-04 03:02 363K
20260504T00Z_MSC_RDPS_WindV_IsbL-0500_RLatLon0.09_PT069H.grib2 2026-05-04 03:02 464K
20260504T00Z_MSC_RDPS_WindV_IsbL-0550_RLatLon0.09_PT069H.grib2 2026-05-04 03:02 465K
20260504T00Z_MSC_RDPS_WindV_IsbL-0600_RLatLon0.09_PT069H.grib2 2026-05-04 03:02 475K
20260504T00Z_MSC_RDPS_WindV_IsbL-0650_RLatLon0.09_PT069H.grib2 2026-05-04 03:02 493K
20260504T00Z_MSC_RDPS_WindV_IsbL-0700_RLatLon0.09_PT069H.grib2 2026-05-04 03:02 513K
20260504T00Z_MSC_RDPS_WindV_IsbL-0750_RLatLon0.09_PT069H.grib2 2026-05-04 03:02 523K
20260504T00Z_MSC_RDPS_WindV_IsbL-0800_RLatLon0.09_PT069H.grib2 2026-05-04 03:02 565K
20260504T00Z_MSC_RDPS_WindV_IsbL-0850_RLatLon0.09_PT069H.grib2 2026-05-04 03:02 619K
20260504T00Z_MSC_RDPS_WindV_IsbL-0875_RLatLon0.09_PT069H.grib2 2026-05-04 03:02 639K
20260504T00Z_MSC_RDPS_WindV_IsbL-0900_RLatLon0.09_PT069H.grib2 2026-05-04 03:02 651K
20260504T00Z_MSC_RDPS_WindV_IsbL-0925_RLatLon0.09_PT069H.grib2 2026-05-04 03:02 659K
20260504T00Z_MSC_RDPS_WindV_IsbL-0950_RLatLon0.09_PT069H.grib2 2026-05-04 03:02 656K
20260504T00Z_MSC_RDPS_WindV_IsbL-0970_RLatLon0.09_PT069H.grib2 2026-05-04 03:02 653K
20260504T00Z_MSC_RDPS_WindV_IsbL-0985_RLatLon0.09_PT069H.grib2 2026-05-04 03:02 651K
20260504T00Z_MSC_RDPS_WindV_IsbL-1000_RLatLon0.09_PT069H.grib2 2026-05-04 03:02 783K
20260504T00Z_MSC_RDPS_WindV_IsbL-1015_RLatLon0.09_PT069H.grib2 2026-05-04 03:02 777K